Terug naar catalogus

STARLINK-6095

ActiefCommunicatieVLEO
NORAD 56101·PAYLOAD·🇺🇸 United States

Gelanceerd Mar 29, 2023 vanaf Cape Canaveral Space Force Station

Loading…

Volgende Passages (komende 24 uur)

TLE

VersSource: CelesTrak SupGP

Epoch: Sep 14, 2026, 21:36 UTC

1 56101C 23046J   26257.90048611 -.00039903  00000+0 -14451-2 0  2578
2 56101  43.0004 172.6945 0001571 259.2835  55.1615 15.27601837    12

Volg STARLINK-6095 in realtime met AllMySat

Download on the App Store